Location: �quirre
(50.4736°N, 2.2351°E)
Time: 04:56:31
(UTC+00:00)

DELTA 2 DEB (DPAF) - Pass Details

Date: 07 August 2020
Orbit: 642 x 645 km, 98.3° (Epoch: 19 September)

Event Time Altitude Azimuth Distance (km) Brightness Sun altitude
Exits shadow 01:00:27 43° 137° (SE) 913 4.6 -21.7°
Maximum altitude 01:01:48 67° 72° (ENE) 702 4.3 -21.7°
Drops below altitude 10° 01:06:14 10° 350° (N) 2,051 7.6 -21.5°
Sets 01:08:27 0° 348° (NNW) 2,965 8.5 -21.4°
